User: anonymous   Login
Location: Unspecified
(0.0000°N, 0.0000°E)
Time: 03:14:32
(UTC+02:00)
Language:

Hamsat - Orbit

View from above orbital plane
View from above orbital plane
View from above satellite
View from above satellite

Ground track
Ground track

The orbit data is extracted from the following two-line orbital elements,

1 28650U 05017B   15143.73283329  .00001403  00000-0  16023-3 0  9998
2 28650 097.5740 137.3059 0025807 111.1942 249.2036 14.87343711543810
Epoch (UTC): 23 May 2015 17:35:16
Eccentricity: 0.0025807
inclination: 97.5740°
perigee height: 588 km
apogee height: 624 km
right ascension of ascending node: 137.3059°
argument of perigee: 111.1942°
revolutions per day: 14.87343711
mean anomaly at epoch: 249.2036°
orbit number at epoch: 54381

The dashed part of the orbit path shows where the satellite is in the earth's shadow,  

DLR